This is the latest recevied weather packets stored in our database for station/object DH1NAI-6. If no packets are shown the sender has not sent any weather packets the latest 10 day(s).
| Time | Temp. | Humidity | Pressure | Rain* | Wind** | Luminosity | Snow |
|---|---|---|---|---|---|---|---|
| 1787725782 | 13.33° C | 99% | 1015.3 hPa | 0 mm | - | 34 W/m² | - |
| 1787725174 | 13.33° C | 99% | 1015.2 hPa | 0 mm | - | 21 W/m² | - |
| 1787724565 | 13.33° C | 99% | 1015.4 hPa | 0 mm | - | 18 W/m² | - |
| 1787723942 | 13.33° C | 99% | 1015.3 hPa | 1.02 mm | - | 18 W/m² | - |
| 1787723318 | 13.33° C | 99% | 1015.4 hPa | 1.02 mm | - | 14 W/m² | - |
| 1787722710 | 13.33° C | 99% | 1015.2 hPa | 1.02 mm | - | 12 W/m² | - |
| 1787722102 | 12.78° C | 99% | 1015.2 hPa | 1.02 mm | - | 8 W/m² | - |
| 1787721494 | 12.78° C | 99% | 1015 hPa | 1.02 mm | - | 6 W/m² | - |
| 1787720886 | 12.78° C | 99% | 1015 hPa | 1.02 mm | - | 7 W/m² | - |
| 1787720278 | 12.78° C | 99% | 1015.1 hPa | 0 mm | - | 2 W/m² | - |
| 1787719670 | 12.78° C | 99% | 1015.1 hPa | 0 mm | - | 2 W/m² | - |
| 1787719062 | 12.78° C | 99% | 1015.2 hPa | 0 mm | - | 0 W/m² | - |
| 1787718454 | 12.78° C | 99% | 1015.2 hPa | 0 mm | - | 0 W/m² | - |
| 1787717846 | 12.78° C | 99% | 1014.8 hPa | 0 mm | - | 0 W/m² | - |
| 1787717238 | 12.78° C | 99% | 1015 hPa | 0 mm | - | 0 W/m² | - |
| 1787716630 | 12.78° C | 99% | 1015 hPa | 0 mm | - | 0 W/m² | - |
| 1787716022 | 12.78° C | 99% | 1014.9 hPa | 0 mm | - | 0 W/m² | - |
| 1787715398 | 12.78° C | 99% | 1015.1 hPa | 0 mm | - | 0 W/m² | - |
| 1787714790 | 12.78° C | 99% | 1014.9 hPa | 0 mm | - | 0 W/m² | - |
| 1787714182 | 12.78° C | 99% | 1015.1 hPa | 0 mm | - | 0 W/m² | - |
| 1787713574 | 12.78° C | 99% | 1015 hPa | 0 mm | - | 0 W/m² | - |
| 1787712966 | 12.78° C | 99% | 1014.9 hPa | 0 mm | - | 0 W/m² | - |
| 1787712358 | 12.78° C | 99% | 1015.2 hPa | 0 mm | - | 0 W/m² | - |
| 1787711750 | 12.78° C | 99% | 1014.9 hPa | 0 mm | - | 0 W/m² | - |
| 1787711142 | 12.78° C | 99% | 1014.9 hPa | 0 mm | - | 0 W/m² | - |
* Rain latest hour (hover to see other rain measurements)
** Current wind speed in m/s (hover to see current wind gust speed)